Location: Blue Mountain Vista Observatory
(40.6992°N, 75.9422°W)
Time: 19:34:14
(UTC-04:00)

Amateur Radio Satellites - All Passes

Search period start: 01 September 2014 19:04
Search period end: 02 September 2014 19:04
Location: Blue Mountain Vista Observatory, 40.6992°N, 75.9422°W

Satellite Date Start Highest point End Downlink Frequencies (MHz)
Time Altitude Azimuth
HO-68 01 Sep 19:05:41 19:07:52 12° 49° (NE) 19:10:03 435.675 MHz FM
Sapphire 01 Sep 19:06:35 19:09:11 13° 321° (NW) 19:11:47 437.095 MHz 1200 baud AX-25 AFSK
RS-15 01 Sep 19:15:42 19:23:42 23° 259° (WSW) 19:31:57 29.354 - 29.394 USB, Beacon 29.352 USB
JAS-2 01 Sep 19:21:01 19:26:05 27° 264° (W) 19:30:46 435.800 - 435.900 CW/SSB, 435.910 FM
SO-67 01 Sep 19:40:54 19:44:18 56° 260° (W) 19:47:44 435.3500 MHz FM
STRAND 1 01 Sep 20:27:02 20:32:00 54° 288° (WNW) 20:36:57 ?
UKube-1 01 Sep 20:34:23 20:37:07 17° 64° (ENE) 20:39:50 145.840 MHz, 145.915 MHz
Oscar 11 01 Sep 20:39:43 20:41:07 11° 62° (ENE) 20:42:31 145.825 FM, Beacon 2401.500 USB
HO-68 01 Sep 20:47:09 20:54:07 60° 69° (ENE) 21:01:07 435.675 MHz FM
Saudisat 1A 01 Sep 21:08:33 21:09:40 11° 107° (ESE) 21:10:46 436.775 MHz
MaSat-1 01 Sep 21:32:54 21:36:03 18° 49° (NE) 21:38:57 437.345 MHz
KITSAT 1 01 Sep 21:37:14 21:40:27 13° 98° (E) 21:43:39 435.175 FM
UKube-1 01 Sep 22:08:46 22:12:56 46° 260° (W) 22:17:08 145.840 MHz, 145.915 MHz
AO-40 01 Sep 22:11:51 04:34:49 42° 178° (S) 06:48:52 Beacon 2401.320
Oscar 11 01 Sep 22:12:23 22:16:42 70° 258° (WSW) 22:21:04 145.825 FM, Beacon 2401.500 USB
HO-68 01 Sep 22:36:32 22:42:13 25° 266° (W) 22:47:56 435.675 MHz FM
FUNcube-1 01 Sep 22:44:11 22:48:22 82° 258° (WSW) 22:52:41 145.950 - 145.970 MHz USB
Saudisat 1A 01 Sep 22:44:12 22:48:36 75° 303° (WNW) 22:53:02 436.775 MHz
MaSat-1 01 Sep 23:09:09 23:13:26 47° 251° (WSW) 23:17:08 437.345 MHz
KITSAT 1 01 Sep 23:26:23 23:34:25 73° 116° (ESE) 23:42:29 435.175 FM
Sapphire 02 Sep 00:25:41 00:28:52 16° 41° (NE) 00:32:02 437.095 MHz 1200 baud AX-25 AFSK
Saudisat 1A 02 Sep 00:27:17 00:28:57 12° 323° (NW) 00:30:38 436.775 MHz
PCSat 02 Sep 00:54:08 00:58:37 25° 48° (NE) 01:03:04 145.825 MHz
KITSAT 1 02 Sep 01:23:38 01:30:32 30° 318° (NW) 01:37:29 435.175 FM
Oscar 16 02 Sep 01:36:04 01:39:43 19° 92° (E) 01:43:20 437.025 USB, Beacon 2401.1428
Uribyol 2 02 Sep 01:50:22 01:51:00 10° 88° (E) 01:51:38 436.500 FM
Sapphire 02 Sep 02:07:39 02:13:07 85° 61° (ENE) 02:18:32 437.095 MHz 1200 baud AX-25 AFSK
AO-27 02 Sep 02:08:25 02:11:34 16° 91° (E) 02:14:42 436.795 MHz FM
PCSat 02 Sep 02:37:03 02:42:18 51° 247° (WSW) 02:47:30 145.825 MHz
Oscar 19 02 Sep 02:38:50 02:44:03 73° 102° (ESE) 02:49:13 437.125 CW, 437.150 USB
AO-Echo 02 Sep 02:47:49 02:52:16 41° 99° (E) 02:56:44 ?
Gurwin Techsat 1B 02 Sep 02:49:25 02:53:00 18° 92° (E) 02:56:35 435.225 FM
Oscar 16 02 Sep 03:14:18 03:19:21 51° 289° (WNW) 03:24:21 437.025 USB, Beacon 2401.1428
ITAMSAT 1 02 Sep 03:16:34 03:21:45 72° 103° (ESE) 03:26:56 435.822 SSB
Oscar 10/S400 02 Sep 03:22:50 04:35:29 37° 234° (SW) 09:04:03 145.825 - 145.975 CW/USB, Beacon 145.810 USB
SO-50 02 Sep 03:23:17 03:27:41 64° 119° (ESE) 03:32:13 436.795 FM
Uribyol 2 02 Sep 03:25:54 03:31:08 88° 285° (WNW) 03:36:20 436.500 FM
KITSAT 1 02 Sep 03:26:48 03:29:12 11° 346° (NNW) 03:31:37 435.175 FM
JAS-1B 02 Sep 03:31:44 03:38:23 80° 103° (ESE) 03:44:11 435.800 - 435.900 CW/SSB
TMSAT-1 02 Sep 03:38:23 03:43:19 38° 98° (E) 03:48:13 436.925 FM
AO-7 02 Sep 03:43:22 03:46:46 13° 88° (E) 03:50:08 29.400 - 29.500 MHz
AO-27 02 Sep 03:46:21 03:51:28 60° 287° (WNW) 03:56:34 436.795 MHz FM
Sapphire 02 Sep 03:53:40 03:55:45 12° 258° (WSW) 03:57:49 437.095 MHz 1200 baud AX-25 AFSK
OPAL 02 Sep 04:15:49 04:20:45 54° 69° (ENE) 04:25:46 ?
Oscar 19 02 Sep 04:19:56 04:22:45 15° 299° (WNW) 04:25:33 437.125 CW, 437.150 USB
AO-Echo 02 Sep 04:27:20 04:30:47 21° 295° (WNW) 04:34:14 ?
Gurwin Techsat 1B 02 Sep 04:28:07 04:33:18 55° 288° (WNW) 04:38:28 435.225 FM
ITAMSAT 1 02 Sep 04:57:46 05:00:38 15° 299° (WNW) 05:03:31 435.822 SSB
SO-50 02 Sep 05:05:35 05:08:41 18° 318° (NW) 05:11:51 436.795 FM
Uribyol 2 02 Sep 05:08:00 05:09:49 12° 302° (WNW) 05:11:37 436.500 FM
UOSAT-12 02 Sep 05:09:08 05:13:40 60° 119° (ESE) 05:18:18 437.025 FM, 437.400 FM
TMSAT-1 02 Sep 05:18:39 05:23:02 27° 294° (WNW) 05:27:25 436.925 FM
Uosat F 02 Sep 05:18:46 05:23:45 64° 102° (ESE) 05:28:42 435.120 FM
JAS-1B 02 Sep 05:24:09 05:27:58 16° 306° (NW) 05:31:32 435.800 - 435.900 CW/SSB
KITSAT 1 02 Sep 05:25:58 05:29:11 13° 18° (NNE) 05:32:23 435.175 FM
AO-7 02 Sep 05:32:32 05:40:51 74° 106° (ESE) 05:49:06 29.400 - 29.500 MHz
Saudisat 1A 02 Sep 05:33:32 05:35:20 12° 38° (NE) 05:37:07 436.775 MHz
OPAL 02 Sep 05:56:32 05:59:57 18° 266° (W) 06:03:24 ?
STRAND 1 02 Sep 06:04:40 06:08:49 26° 66° (ENE) 06:12:58 ?
Hamsat 02 Sep 06:23:08 06:26:57 29° 96° (E) 06:30:42 145.90 MHz
JAS-2 02 Sep 06:28:29 06:33:19 34° 98° (E) 06:38:31 435.800 - 435.900 CW/SSB, 435.910 FM
UOSAT-12 02 Sep 06:50:48 06:54:13 20° 317° (NW) 06:57:40 437.025 FM, 437.400 FM
Uosat F 02 Sep 06:59:03 07:02:00 16° 298° (WNW) 07:04:58 435.120 FM
Saudisat 1A 02 Sep 07:11:13 07:15:40 78° 57° (ENE) 07:20:03 436.775 MHz
KITSAT 1 02 Sep 07:20:11 07:27:30 36° 46° (NE) 07:34:45 435.175 FM
RS-15 02 Sep 07:24:15 07:35:03 60° 114° (ESE) 07:45:40 29.354 - 29.394 USB, Beacon 29.352 USB
AO-7 02 Sep 07:26:24 07:32:52 26° 305° (NW) 07:39:19 29.400 - 29.500 MHz
STRAND 1 02 Sep 07:43:06 07:47:48 38° 262° (W) 07:52:32 ?
Hamsat 02 Sep 07:59:17 08:02:46 24° 292° (WNW) 08:06:14 145.90 MHz
JAS-2 02 Sep 08:13:50 08:18:22 30° 292° (WNW) 08:23:12 435.800 - 435.900 CW/SSB, 435.910 FM
SO-67 02 Sep 08:37:54 08:41:13 43° 286° (WNW) 08:44:30 435.3500 MHz FM
Saudisat 1A 02 Sep 08:53:51 08:54:35 10° 253° (WSW) 08:55:18 436.775 MHz
KITSAT 1 02 Sep 09:15:24 09:23:17 59° 246° (WSW) 09:31:07 435.175 FM
RS-15 02 Sep 09:37:31 09:47:49 43° 317° (NW) 09:58:07 29.354 - 29.394 USB, Beacon 29.352 USB
ISS 02 Sep 09:47:50 09:51:05 56° 140° (SE) 09:54:21 145.800 FM
UKube-1 02 Sep 09:57:29 10:01:16 29° 97° (E) 10:05:03 145.840 MHz, 145.915 MHz
Oscar 11 02 Sep 10:01:02 10:04:25 22° 94° (E) 10:07:46 145.825 FM, Beacon 2401.500 USB
HO-68 02 Sep 10:02:29 10:09:36 64° 103° (ESE) 10:16:41 435.675 MHz FM
SO-50 02 Sep 10:17:17 10:18:07 10° 34° (NE) 10:18:58 436.795 FM
FUNcube-1 02 Sep 10:34:07 10:37:34 21° 94° (E) 10:41:02 145.950 - 145.970 MHz USB
ISS 02 Sep 11:25:15 11:28:01 24° 337° (NNW) 11:30:47 145.800 FM
PANSAT 02 Sep 11:32:27 11:33:53 12° 172° (S) 11:35:19 not established
UKube-1 02 Sep 11:33:49 11:37:21 25° 293° (WNW) 11:40:53 145.840 MHz, 145.915 MHz
Oscar 11 02 Sep 11:36:44 11:40:39 33° 290° (WNW) 11:44:32 145.825 FM, Beacon 2401.500 USB
HO-68 02 Sep 11:51:07 11:56:45 26° 301° (WNW) 12:02:24 435.675 MHz FM
SO-50 02 Sep 11:55:02 11:59:44 54° 54° (NE) 12:04:30 436.795 FM
RS-15 02 Sep 11:56:40 12:04:11 20° 350° (N) 12:11:47 29.354 - 29.394 USB, Beacon 29.352 USB
FUNcube-1 02 Sep 12:09:51 12:14:03 38° 289° (WNW) 12:18:18 145.950 - 145.970 MHz USB
Oscar 19 02 Sep 12:19:32 12:21:55 13° 60° (ENE) 12:24:19 437.125 CW, 437.150 USB
JAS-1B 02 Sep 12:27:11 12:32:39 18° 55° (NE) 12:37:44 435.800 - 435.900 CW/SSB
Oscar 16 02 Sep 12:52:37 12:56:56 28° 66° (ENE) 13:01:16 437.025 USB, Beacon 2401.1428
MaSat-1 02 Sep 12:55:15 13:00:08 73° 113° (ESE) 13:05:18 437.345 MHz
ITAMSAT 1 02 Sep 12:58:15 13:00:43 14° 60° (ENE) 13:03:12 435.822 SSB
ISS 02 Sep 13:04:05 13:05:40 13° 357° (N) 13:07:14 145.800 FM
Uribyol 2 02 Sep 13:06:31 13:09:48 17° 62° (ENE) 13:13:05 436.500 FM
PANSAT 02 Sep 13:11:31 13:13:19 13° 185° (S) 13:15:07 not established
AO-27 02 Sep 13:26:05 13:30:13 25° 65° (ENE) 13:34:22 436.795 MHz FM
SO-50 02 Sep 13:36:38 13:39:55 19° 250° (WSW) 13:43:13 436.795 FM
UOSAT-12 02 Sep 13:39:05 13:43:41 48° 53° (NE) 13:48:12 437.025 FM, 437.400 FM
Oscar 19 02 Sep 13:55:23 14:00:33 81° 257° (WSW) 14:05:46 437.125 CW, 437.150 USB
AO-Echo 02 Sep 14:00:19 14:05:11 54° 73° (ENE) 14:09:55 ?
Gurwin Techsat 1B 02 Sep 14:10:01 14:14:30 29° 66° (ENE) 14:18:59 435.225 FM
JAS-1B 02 Sep 14:12:17 14:21:57 72° 72° (ENE) 14:30:31 435.800 - 435.900 CW/SSB
RS-15 02 Sep 14:13:05 14:21:55 26° 26° (NNE) 14:30:55 29.354 - 29.394 USB, Beacon 29.352 USB
Oscar 16 02 Sep 14:31:24 14:36:07 36° 263° (W) 14:40:53 437.025 USB, Beacon 2401.1428
MaSat-1 02 Sep 14:34:21 14:37:43 18° 311° (NW) 14:41:09 437.345 MHz
ITAMSAT 1 02 Sep 14:34:22 14:39:32 79° 257° (WSW) 14:44:44 435.822 SSB
ISS 02 Sep 14:40:58 14:43:24 19° 18° (NNE) 14:45:51 145.800 FM
AO-7 02 Sep 14:41:28 14:47:25 22° 52° (NE) 14:53:20 29.400 - 29.500 MHz
Uribyol 2 02 Sep 14:43:41 14:48:46 61° 259° (WSW) 14:53:53 436.500 FM
Uosat F 02 Sep 14:57:39 14:58:44 11° 58° (ENE) 14:59:49 435.120 FM
TMSAT-1 02 Sep 14:58:47 15:03:57 58° 72° (ENE) 15:09:09 436.925 FM
AO-27 02 Sep 15:04:39 15:09:30 40° 262° (W) 15:14:22 436.795 MHz FM
Sapphire 02 Sep 15:11:03 15:11:47 10° 101° (E) 15:12:32 437.095 MHz 1200 baud AX-25 AFSK
UOSAT-12 02 Sep 15:20:05 15:23:28 20° 250° (WSW) 15:26:50 437.025 FM, 437.400 FM
PCSat 02 Sep 15:36:32 15:40:32 22° 106° (ESE) 15:44:34 145.825 MHz
AO-Echo 02 Sep 15:41:08 15:44:14 16° 268° (W) 15:47:18 ?
Gurwin Techsat 1B 02 Sep 15:49:28 15:54:19 36° 263° (W) 15:59:12 435.225 FM
JAS-1B 02 Sep 16:04:50 16:12:47 29° 267° (W) 16:20:10 435.800 - 435.900 CW/SSB
ISS 02 Sep 16:17:13 16:20:33 83° 36° (NE) 16:23:53 145.800 FM
RS-15 02 Sep 16:25:33 16:36:39 72° 54° (NE) 16:48:10 29.354 - 29.394 USB, Beacon 29.352 USB
OPAL 02 Sep 16:27:41 16:30:27 14° 93° (E) 16:33:12 ?
AO-7 02 Sep 16:30:49 16:39:11 88° 252° (WSW) 16:47:33 29.400 - 29.500 MHz
Uosat F 02 Sep 16:31:42 16:36:43 85° 75° (ENE) 16:41:45 435.120 FM
TMSAT-1 02 Sep 16:40:51 16:44:15 17° 269° (W) 16:47:39 436.925 FM
JAS-2 02 Sep 16:43:18 16:46:20 15° 62° (ENE) 16:49:14 435.800 - 435.900 CW/SSB, 435.910 FM
Sapphire 02 Sep 16:48:55 16:54:19 85° 118° (ESE) 16:59:46 437.095 MHz 1200 baud AX-25 AFSK
Hamsat 02 Sep 17:16:37 17:19:55 22° 67° (ENE) 17:23:13 145.90 MHz
PCSat 02 Sep 17:18:17 17:23:33 52° 303° (WNW) 17:28:52 145.825 MHz
ISS 02 Sep 17:56:00 17:56:48 11° 232° (SW) 17:57:37 145.800 FM
OPAL 02 Sep 18:04:35 18:09:48 69° 289° (WNW) 18:14:57 ?
Uosat F 02 Sep 18:15:43 18:16:07 10° 271° (W) 18:16:31 435.120 FM
JAS-2 02 Sep 18:24:50 18:30:55 78° 257° (WSW) 18:36:24 435.800 - 435.900 CW/SSB, 435.910 FM
AO-7 02 Sep 18:28:00 18:32:59 17° 270° (W) 18:38:00 29.400 - 29.500 MHz
Sapphire 02 Sep 18:34:59 18:38:27 17° 317° (NW) 18:41:57 437.095 MHz 1200 baud AX-25 AFSK
RS-15 02 Sep 18:38:51 18:48:08 32° 255° (WSW) 18:57:47 29.354 - 29.394 USB, Beacon 29.352 USB
Hamsat 02 Sep 18:51:44 18:55:39 33° 263° (W) 18:59:38 145.90 MHz
